Regional Weather Roundup
Issued by NWS Huntsville, AL

Home | Current Version | Previous Version | Text Only | Print | Product List | Glossary On
Versions: 1 2 3 4 5 6 7 8 9 10 11 12 13 14 15 16 17 18 19 20 21 22 23 24 25 26 27 28 29 30 31 32 33 34 35 36 37 38 39 40 41 42 43 44 45 46 47 48 49 50
000
ASUS44 KHUN 282110
RWRHUN

WEATHER ROUNDUP FOR THE TENNESSEE VALLEY
NATIONAL WEATHER SERVICE HUNTSVILLE AL
300 PM CST SUN DEC 28 2014

ALZ001>004-282200-
NORTHWEST ALABAMA

CITY           SKY/WX    TMP DP  RH WIND       PRES   REMARKS
COURTLAND HCN    N/A     46 N/A N/A NW7         N/A
RUSSELLVILLE     N/A     45 N/A N/A MISG        N/A
SHOALS AIRPORT CLOUDY    46  42  86 NW5       30.14R
SHOALS TVA RES   N/A     45 N/A N/A MISG        N/A
$$

ALZ005>007-016-282200-
NORTH CENTRAL ALABAMA

CITY           SKY/WX    TMP DP  RH WIND       PRES   REMARKS
CULLMAN AG STN   N/A     52 N/A N/A N3          N/A
DECATUR AP     CLOUDY    48  44  86 N9        30.11R
HUNTSVILLE AP  CLOUDY    50  46  86 N10       30.10R
HUN NWS/UAH      N/A     48  43  85 N9          N/A
MERIDIANVILLE  CLOUDY    45  41  87 NW10      30.12R
REDSTONE ARSN  CLOUDY    48  46  93 N10       30.09R
VINEMONT AP    FOG       49  48  97 N7        30.11R VSB 1/2
$$

ALZ008>010-282200-
NORTHEAST ALABAMA

CITY           SKY/WX    TMP DP  RH WIND       PRES   REMARKS
ALBERTVILLE    CLOUDY    55  55 100 W5        30.05R
FORT PAYNE     CLOUDY    59  52  77 SW3       30.04R
SCOTTSBORO AP  CLOUDY    57  55  94 CALM      30.07R
VALLEY HEAD      N/A     59 N/A N/A MISG        N/A
$$

TNZ076-096-097-282200-
SOUTHEASTERN MIDDLE TENNESSEE

CITY           SKY/WX    TMP DP  RH WIND       PRES   REMARKS
TULLAHOMA      CLOUDY    39  39 100 NW9       30.12R VSB 1/2 WCI  33
WINCHESTER     CLOUDY    45  45 100 N8        30.11R
$$

...SURROUNDING SITES...

CITY           SKY/WX    TMP DP  RH WIND       PRES   REMARKS
ATLANTA        CLOUDY    61  58  90 W3        30.05S
ANNISTON       CLOUDY    61  57  87 SW3       30.05R
BIRMINGHAM     CLOUDY    60  56  86 NW7       30.07R
CHATTANOOGA    CLOUDY    58  55  90 E3        30.04R
DALTON         CLOUDY    57  57 100 SE3       30.04S
GADSDEN        CLOUDY    61  55  82 CALM      30.04S
GOLDEN TRNGL   CLOUDY    48  43  81 N12       30.11R
HALEYVILLE     CLOUDY    45  45 100 N8        30.13R FOG
JACKSON TN     LGT RAIN  40  37  89 N6        30.16S FOG
LEWISBURG      CLOUDY    42  40  93 N5        30.12R
MEMPHIS        CLOUDY    41  36  82 N7        30.17R
MURFREESBORO   CLOUDY    41  40  96 N7        30.14R
NASHVILLE      LGT RAIN  40  38  93 N3        30.15R
OXFORD MS      CLOUDY    39  39 100 N7        30.15F FOG     WCI  34
ROME           CLOUDY    60  57  89 S5        30.03S
SAVANNAH       CLOUDY    39  39 100 N6        30.15R WCI  35
TUPELO         LGT RAIN  44  41  89 NE6       30.13S
TUSCALOOSA     CLOUDY    58  54  86 NW10      30.07R
$$

...GULF COAST WEATHER...

CITY           SKY/WX    TMP DP  RH WIND       PRES   REMARKS
GULFPORT       FOG       65  64  97 CALM      30.01S VSB 1/4
PASCAGOULA     CLOUDY    70  66  87 S7        30.01S
MOBILE         CLOUDY    70  64  81 SW7       30.01S
GULF SHORES    LGT RAIN  66  65  96 W6        30.03S
DESTIN         CLOUDY    71  69  93 VRB3      30.03
PANAMA CITY    PTSUNNY   73  72  94 S10       30.05S
APPALACHICOLA  PTSUNNY   73  67  81 S6        30.06S
$$




USA.gov is the U.S. government's official web portal to all federal, state and local government web resources and services.